TimeEDT,TemperatureF,Dew PointF,Humidity,Sea Level PressureIn,VisibilityMPH,Wind Direction,Wind SpeedMPH,Gust SpeedMPH,PrecipitationIn,Events,Conditions,WindDirDegrees,DateUTC
12:14 AM,50.5,48.7,94,30.07,10.0,West,6.9,-,N/A,,Clear,260,2012-09-29 04:14:00
12:35 AM,51.4,49.6,94,30.07,10.0,WSW,6.9,-,N/A,,Clear,250,2012-09-29 04:35:00
12:55 AM,52.3,50.0,92,30.06,10.0,West,6.9,-,N/A,,Clear,270,2012-09-29 04:55:00
1:14 AM,52.2,50.0,92,30.06,10.0,West,5.8,-,N/A,,Clear,270,2012-09-29 05:14:00
1:35 AM,52.3,49.1,89,30.06,10.0,West,6.9,-,N/A,,Clear,280,2012-09-29 05:35:00
1:54 AM,52.5,48.2,85,30.06,10.0,WNW,4.6,-,N/A,,Clear,290,2012-09-29 05:54:00
2:14 AM,52.3,49.1,89,30.06,10.0,NW,4.6,-,N/A,,Clear,310,2012-09-29 06:14:00
2:35 AM,51.6,45.9,81,30.05,10.0,WNW,4.6,-,N/A,,Clear,290,2012-09-29 06:35:00
2:55 AM,50.7,44.2,78,30.05,10.0,WNW,5.8,-,N/A,,Clear,300,2012-09-29 06:55:00
3:14 AM,50.0,44.2,81,30.05,10.0,WNW,4.6,-,N/A,,Clear,300,2012-09-29 07:14:00
3:35 AM,49.6,44.4,82,30.05,10.0,NW,4.6,-,N/A,,Clear,320,2012-09-29 07:35:00
3:54 AM,49.5,44.4,83,30.05,10.0,NW,3.5,-,N/A,,Clear,320,2012-09-29 07:54:00
4:14 AM,48.4,45.1,89,30.05,10.0,NW,6.9,-,N/A,,Clear,320,2012-09-29 08:14:00
4:54 AM,47.3,45.1,92,30.05,10.0,NW,5.8,-,N/A,,Clear,320,2012-09-29 08:54:00
5:14 AM,47.3,45.1,92,30.05,10.0,NW,6.9,-,N/A,,Clear,310,2012-09-29 09:14:00
5:35 AM,46.9,45.0,93,30.05,10.0,NW,8.1,-,N/A,,Clear,320,2012-09-29 09:35:00
5:54 AM,46.9,45.1,93,30.04,10.0,NW,5.8,-,N/A,,Clear,320,2012-09-29 09:54:00
6:15 AM,46.4,44.8,94,30.04,10.0,NNW,5.8,-,N/A,,Clear,330,2012-09-29 10:15:00
6:35 AM,46.4,45.0,95,30.04,10.0,NNW,5.8,-,N/A,,Clear,330,2012-09-29 10:35:00
6:54 AM,46.0,44.8,95,30.05,10.0,NNW,4.6,-,N/A,,Clear,330,2012-09-29 10:54:00
7:15 AM,46.4,45.0,95,30.05,10.0,NNW,4.6,-,N/A,,Clear,340,2012-09-29 11:15:00
7:35 AM,45.5,44.4,96,30.05,5.0,North,4.6,-,N/A,,Clear,350,2012-09-29 11:35:00
7:54 AM,45.3,44.2,96,30.05,5.0,North,6.9,-,N/A,,Scattered Clouds,360,2012-09-29 11:54:00
8:15 AM,46.6,45.5,96,30.06,10.0,North,6.9,-,N/A,,Scattered Clouds,10,2012-09-29 12:15:00
8:35 AM,48.0,46.8,95,30.06,10.0,NNE,8.1,-,N/A,,Scattered Clouds,30,2012-09-29 12:35:00
8:54 AM,48.9,47.3,94,30.06,10.0,NE,6.9,-,N/A,,Clear,40,2012-09-29 12:54:00
9:15 AM,50.0,46.4,87,30.06,10.0,NE,9.2,-,N/A,,Clear,40,2012-09-29 13:15:00
9:35 AM,50.4,45.7,84,30.06,10.0,NE,6.9,-,N/A,,Clear,40,2012-09-29 13:35:00
9:54 AM,50.9,45.1,81,30.06,10.0,NE,5.8,-,N/A,,Clear,50,2012-09-29 13:54:00
10:15 AM,51.4,44.6,77,30.07,10.0,NE,8.1,-,N/A,,Clear,50,2012-09-29 14:15:00
10:35 AM,52.0,44.6,76,30.08,10.0,NE,10.4,-,N/A,,Clear,50,2012-09-29 14:35:00
10:54 AM,52.5,44.2,73,30.08,10.0,NE,10.4,-,N/A,,Clear,40,2012-09-29 14:54:00
11:15 AM,53.6,44.8,72,30.07,10.0,NE,6.9,-,N/A,,Clear,50,2012-09-29 15:15:00
11:35 AM,53.8,44.6,71,30.07,10.0,NE,6.9,-,N/A,,Clear,40,2012-09-29 15:35:00
11:54 AM,54.5,44.4,69,30.07,10.0,ENE,5.8,-,N/A,,Clear,60,2012-09-29 15:54:00
12:15 PM,54.9,44.4,68,30.07,10.0,ENE,5.8,-,N/A,,Clear,60,2012-09-29 16:15:00
12:34 PM,55.9,44.8,66,30.07,10.0,East,3.5,-,N/A,,Clear,80,2012-09-29 16:34:00
1:14 PM,55.4,44.6,67,30.07,10.0,ENE,6.9,-,N/A,,Clear,70,2012-09-29 17:14:00
1:35 PM,57.0,44.4,63,30.07,10.0,ESE,3.5,-,N/A,,Clear,110,2012-09-29 17:35:00
1:55 PM,57.4,43.7,60,30.06,10.0,ESE,4.6,-,N/A,,Clear,110,2012-09-29 17:55:00
2:14 PM,58.3,43.3,58,30.05,10.0,East,3.5,-,N/A,,Clear,80,2012-09-29 18:14:00
2:35 PM,59.2,43.0,55,30.05,10.0,ESE,4.6,-,N/A,,Clear,110,2012-09-29 18:35:00
2:55 PM,59.2,42.4,54,30.05,10.0,East,4.6,-,N/A,,Clear,90,2012-09-29 18:55:00
3:14 PM,59.4,43.2,55,30.05,10.0,ESE,4.6,-,N/A,,Scattered Clouds,120,2012-09-29 19:14:00
3:35 PM,60.1,43.0,53,30.04,10.0,ENE,4.6,-,N/A,,Mostly Cloudy,70,2012-09-29 19:35:00
3:55 PM,60.1,42.1,51,30.03,10.0,East,5.8,-,N/A,,Scattered Clouds,100,2012-09-29 19:55:00
4:14 PM,59.5,41.4,51,30.03,10.0,East,6.9,-,N/A,,Clear,100,2012-09-29 20:14:00
4:35 PM,59.7,42.4,53,30.03,10.0,SE,4.6,-,N/A,,Scattered Clouds,140,2012-09-29 20:35:00
4:55 PM,59.0,42.3,54,30.02,10.0,SSE,3.5,-,N/A,,Clear,150,2012-09-29 20:55:00
5:14 PM,59.0,43.3,56,30.02,10.0,Calm,Calm,-,N/A,,Clear,0,2012-09-29 21:14:00
5:35 PM,59.0,44.6,59,30.03,10.0,SSE,4.6,-,N/A,,Clear,150,2012-09-29 21:35:00
5:55 PM,58.3,44.4,60,30.03,10.0,South,4.6,-,N/A,,Scattered Clouds,170,2012-09-29 21:55:00
6:14 PM,58.3,43.5,58,30.03,10.0,SSE,4.6,-,N/A,,Overcast,150,2012-09-29 22:14:00
6:35 PM,57.7,44.8,62,30.04,10.0,SSE,4.6,-,N/A,,Overcast,160,2012-09-29 22:35:00
6:54 PM,57.2,45.1,64,30.04,10.0,South,4.6,-,N/A,,Overcast,180,2012-09-29 22:54:00
7:14 PM,56.1,45.9,68,30.04,10.0,Calm,Calm,-,N/A,,Overcast,0,2012-09-29 23:14:00
7:35 PM,53.8,46.4,76,30.04,10.0,Calm,Calm,-,N/A,,Overcast,0,2012-09-29 23:35:00
7:54 PM,52.7,45.7,77,30.03,10.0,Calm,Calm,-,N/A,,Mostly Cloudy,0,2012-09-29 23:54:00
8:14 PM,50.5,45.5,83,30.04,10.0,NNW,4.6,-,N/A,,Scattered Clouds,330,2012-09-30 00:14:00
8:35 PM,51.3,45.0,79,30.04,10.0,North,8.1,-,N/A,,Clear,350,2012-09-30 00:35:00
8:54 PM,51.8,44.1,75,30.05,10.0,North,8.1,-,N/A,,Clear,350,2012-09-30 00:54:00
9:14 PM,51.4,44.1,76,30.04,10.0,NNW,5.8,-,N/A,,Scattered Clouds,340,2012-09-30 01:14:00
9:35 PM,50.2,44.2,80,30.04,10.0,North,5.8,-,N/A,,Mostly Cloudy,10,2012-09-30 01:35:00
10:14 PM,49.8,44.6,82,30.04,10.0,North,5.8,-,N/A,,Scattered Clouds,360,2012-09-30 02:14:00
10:35 PM,49.5,44.8,84,30.04,10.0,NNE,4.6,-,N/A,,Scattered Clouds,20,2012-09-30 02:35:00
10:54 PM,49.3,44.1,82,30.04,10.0,NNE,5.8,-,N/A,,Scattered Clouds,30,2012-09-30 02:54:00
11:15 PM,50.0,43.3,78,30.04,10.0,NE,6.9,-,N/A,,Clear,40,2012-09-30 03:15:00
11:35 PM,50.0,43.3,78,30.04,10.0,NE,6.9,-,N/A,,Clear,50,2012-09-30 03:35:00
11:54 PM,50.0,42.8,76,30.04,10.0,NE,6.9,-,N/A,,Scattered Clouds,50,2012-09-30 03:54:00